Time,TemperatureF,DewpointF,PressureIn,WindDirection,WindDirectionDegrees,WindSpeedMPH,WindSpeedGustMPH,Humidity,HourlyPrecipIn,Conditions,Clouds,dailyrainin,SoftwareType,DateUTC
2013-11-06 00:00:00,47.9,47.1,29.89,North,5,0.0,13.0,97,0.34,,---,0.00,VWS V14.01,2013-11-06 06:00:00,
2013-11-06 00:01:00,47.9,47.1,29.89,North,5,2.0,5.0,97,0.20,,---,0.00,VWS V14.01,2013-11-06 06:01:00,
2013-11-06 00:06:00,47.6,46.8,29.89,NW,318,2.0,7.0,97,0.22,,---,0.02,VWS V14.01,2013-11-06 06:06:00,
2013-11-06 00:11:00,47.1,46.3,29.89,North,11,1.0,8.0,97,0.25,,---,0.05,VWS V14.01,2013-11-06 06:11:00,
2013-11-06 00:16:00,46.7,45.9,29.90,North,5,2.0,8.0,97,0.27,,---,0.07,VWS V14.01,2013-11-06 06:16:00,
2013-11-06 00:21:00,45.8,45.0,29.90,North,5,1.0,8.0,97,0.28,,---,0.08,VWS V14.01,2013-11-06 06:21:00,
2013-11-06 00:26:00,45.2,44.4,29.90,NNW,333,4.0,9.0,97,0.30,,---,0.10,VWS V14.01,2013-11-06 06:26:00,
2013-11-06 00:30:00,44.9,44.1,29.92,NNW,331,3.0,9.0,97,0.31,,---,0.11,VWS V14.01,2013-11-06 06:30:00,
2013-11-06 00:31:00,44.9,44.1,29.92,NNW,346,4.0,4.0,97,0.18,,---,0.11,VWS V14.01,2013-11-06 06:31:00,
2013-11-06 00:36:00,44.8,44.0,29.92,North,355,3.0,7.0,97,0.19,,---,0.12,VWS V14.01,2013-11-06 06:36:00,
2013-11-06 00:41:00,44.5,43.7,29.92,NNW,340,2.0,11.0,97,0.20,,---,0.13,VWS V14.01,2013-11-06 06:41:00,
2013-11-06 00:46:00,44.1,43.3,29.93,NW,320,7.0,11.0,97,0.21,,---,0.14,VWS V14.01,2013-11-06 06:46:00,
2013-11-06 00:51:00,43.6,42.8,29.93,North,355,4.0,11.0,97,0.22,,---,0.15,VWS V14.01,2013-11-06 06:51:00,
2013-11-06 00:56:00,43.3,42.5,29.93,NW,304,9.0,11.0,97,0.23,,---,0.16,VWS V14.01,2013-11-06 06:56:00,
2013-11-06 01:00:00,43.1,42.3,29.94,North,355,2.0,11.0,97,0.23,,---,0.16,VWS V14.01,2013-11-06 07:00:00,
2013-11-06 01:01:00,42.9,42.1,29.94,NW,313,2.0,4.0,97,0.16,,---,0.16,VWS V14.01,2013-11-06 07:01:00,
2013-11-06 01:06:00,42.6,41.8,29.94,NW,308,2.0,7.0,97,0.17,,---,0.17,VWS V14.01,2013-11-06 07:06:00,
2013-11-06 01:11:00,42.3,41.5,29.94,NW,307,2.0,8.0,97,0.18,,---,0.18,VWS V14.01,2013-11-06 07:11:00,
2013-11-06 01:16:00,42.2,41.4,29.92,NNW,331,6.0,11.0,97,0.18,,---,0.18,VWS V14.01,2013-11-06 07:16:00,
2013-11-06 01:21:00,42.1,41.3,29.92,WNW,297,6.0,11.0,97,0.19,,---,0.19,VWS V14.01,2013-11-06 07:21:00,
2013-11-06 01:26:00,41.9,41.1,29.92,North,351,3.0,11.0,97,0.19,,---,0.19,VWS V14.01,2013-11-06 07:26:00,
2013-11-06 01:30:00,41.9,41.1,29.93,NNW,329,2.0,11.0,97,0.19,,---,0.19,VWS V14.01,2013-11-06 07:30:00,
2013-11-06 01:31:00,41.9,41.1,29.93,NNW,332,4.0,6.0,97,0.08,,---,0.19,VWS V14.01,2013-11-06 07:31:00,
2013-11-06 01:36:00,41.8,41.0,29.93,NNE,13,1.0,6.0,97,0.08,,---,0.19,VWS V14.01,2013-11-06 07:36:00,
2013-11-06 01:41:00,41.6,40.8,29.93,NNW,331,2.0,7.0,97,0.08,,---,0.19,VWS V14.01,2013-11-06 07:41:00,
2013-11-06 01:46:00,41.5,40.7,29.94,WSW,256,1.0,7.0,97,0.08,,---,0.19,VWS V14.01,2013-11-06 07:46:00,
2013-11-06 01:51:00,41.2,40.4,29.94,NNW,327,2.0,7.0,97,0.08,,---,0.19,VWS V14.01,2013-11-06 07:51:00,
2013-11-06 01:56:00,40.9,40.1,29.94,NNW,331,4.0,8.0,97,0.08,,---,0.19,VWS V14.01,2013-11-06 07:56:00,
2013-11-06 02:00:00,40.6,39.8,29.97,NW,320,6.0,10.0,97,0.08,,---,0.19,VWS V14.01,2013-11-06 08:00:00,
2013-11-06 02:01:00,40.6,39.8,29.97,NW,324,3.0,6.0,97,0.03,,---,0.19,VWS V14.01,2013-11-06 08:01:00,
2013-11-06 02:06:00,40.2,39.4,29.97,NNE,18,2.0,10.0,97,0.03,,---,0.19,VWS V14.01,2013-11-06 08:06:00,
2013-11-06 02:11:00,40.1,39.3,29.97,NW,308,2.0,10.0,97,0.03,,---,0.19,VWS V14.01,2013-11-06 08:11:00,
2013-11-06 02:16:00,39.9,39.1,29.99,WNW,301,2.0,10.0,97,0.03,,---,0.19,VWS V14.01,2013-11-06 08:16:00,
2013-11-06 02:21:00,39.8,39.0,29.99,West,277,6.0,10.0,97,0.03,,---,0.19,VWS V14.01,2013-11-06 08:21:00,
2013-11-06 02:26:00,39.6,38.8,29.99,NNW,346,3.0,10.0,97,0.03,,---,0.19,VWS V14.01,2013-11-06 08:26:00,
2013-11-06 02:30:00,39.5,38.7,29.98,SW,227,2.0,10.0,97,0.03,,---,0.19,VWS V14.01,2013-11-06 08:30:00,
2013-11-06 02:31:00,39.5,38.7,29.98,NW,319,1.0,4.0,97,0.00,,---,0.19,VWS V14.01,2013-11-06 08:31:00,
2013-11-06 02:36:00,39.2,38.4,29.98,SE,142,1.0,9.0,97,0.00,,---,0.19,VWS V14.01,2013-11-06 08:36:00,
2013-11-06 02:41:00,39.1,38.3,29.98,NNW,327,3.0,9.0,97,0.00,,---,0.19,VWS V14.01,2013-11-06 08:41:00,
2013-11-06 02:46:00,38.8,38.0,29.97,NNW,347,4.0,9.0,97,0.00,,---,0.19,VWS V14.01,2013-11-06 08:46:00,
2013-11-06 02:51:00,38.6,37.6,29.97,NNW,339,1.0,17.0,96,0.00,,---,0.19,VWS V14.01,2013-11-06 08:51:00,
2013-11-06 02:56:00,38.3,37.3,29.97,NNW,332,2.0,17.0,96,0.00,,---,0.19,VWS V14.01,2013-11-06 08:56:00,
2013-11-06 03:00:00,38.3,37.3,29.96,North,355,4.0,17.0,96,0.00,,---,0.19,VWS V14.01,2013-11-06 09:00:00,
2013-11-06 03:01:00,38.3,37.3,29.96,NNW,342,3.0,4.0,96,0.00,,---,0.19,VWS V14.01,2013-11-06 09:01:00,
2013-11-06 03:06:00,38.2,37.2,29.96,NW,321,4.0,8.0,96,0.00,,---,0.19,VWS V14.01,2013-11-06 09:06:00,
2013-11-06 03:11:00,38.0,37.0,29.96,NW,321,4.0,10.0,96,0.00,,---,0.19,VWS V14.01,2013-11-06 09:11:00,
2013-11-06 03:16:00,37.9,36.9,30.00,North,9,1.0,10.0,96,0.00,,---,0.19,VWS V14.01,2013-11-06 09:16:00,
2013-11-06 03:21:00,37.9,37.1,30.00,NNW,340,3.0,10.0,97,0.00,,---,0.19,VWS V14.01,2013-11-06 09:21:00,
2013-11-06 03:26:00,37.9,36.9,30.00,NW,325,4.0,10.0,96,0.00,,---,0.19,VWS V14.01,2013-11-06 09:26:00,
2013-11-06 03:30:00,37.8,36.8,29.99,NNW,330,2.0,10.0,96,0.00,,---,0.19,VWS V14.01,2013-11-06 09:30:00,
2013-11-06 03:31:00,37.8,36.8,29.99,NNW,332,3.0,3.0,96,0.00,,---,0.19,VWS V14.01,2013-11-06 09:31:00,
2013-11-06 03:36:00,37.6,36.6,29.99,NNW,331,1.0,9.0,96,0.00,,---,0.19,VWS V14.01,2013-11-06 09:36:00,
2013-11-06 03:41:00,37.6,36.6,29.99,NW,326,5.0,10.0,96,0.00,,---,0.19,VWS V14.01,2013-11-06 09:41:00,
2013-11-06 03:46:00,37.6,36.6,29.97,NW,311,7.0,10.0,96,0.00,,---,0.19,VWS V14.01,2013-11-06 09:46:00,
2013-11-06 03:51:00,37.6,36.6,29.97,NNW,329,6.0,11.0,96,0.00,,---,0.19,VWS V14.01,2013-11-06 09:51:00,
2013-11-06 03:56:00,37.6,36.6,29.97,WNW,298,3.0,11.0,96,0.00,,---,0.19,VWS V14.01,2013-11-06 09:56:00,
2013-11-06 04:00:00,37.5,36.5,29.98,NNW,340,7.0,11.0,96,0.00,,---,0.19,VWS V14.01,2013-11-06 10:00:00,
2013-11-06 04:01:00,37.5,36.5,29.98,NNW,331,3.0,7.0,96,0.00,,---,0.19,VWS V14.01,2013-11-06 10:01:00,
2013-11-06 04:06:00,37.6,36.6,29.98,NNW,335,2.0,12.0,96,0.00,,---,0.19,VWS V14.01,2013-11-06 10:06:00,
2013-11-06 04:11:00,37.6,36.6,29.98,NNW,342,3.0,12.0,96,0.00,,---,0.19,VWS V14.01,2013-11-06 10:11:00,
2013-11-06 04:16:00,37.5,36.5,29.97,NW,309,5.0,12.0,96,0.00,,---,0.19,VWS V14.01,2013-11-06 10:16:00,
2013-11-06 04:21:00,37.5,36.5,29.97,North,355,1.0,12.0,96,0.00,,---,0.19,VWS V14.01,2013-11-06 10:21:00,
2013-11-06 04:26:00,37.3,36.3,29.97,NW,326,1.0,12.0,96,0.00,,---,0.19,VWS V14.01,2013-11-06 10:26:00,
2013-11-06 04:30:00,37.5,36.5,30.00,North,5,0.0,12.0,96,0.00,,---,0.19,VWS V14.01,2013-11-06 10:30:00,
2013-11-06 04:31:00,37.5,36.5,30.00,North,5,1.0,1.0,96,0.00,,---,0.19,VWS V14.01,2013-11-06 10:31:00,
2013-11-06 04:36:00,37.5,36.5,30.00,NNW,342,3.0,11.0,96,0.00,,---,0.19,VWS V14.01,2013-11-06 10:36:00,
2013-11-06 04:41:00,37.5,36.5,30.00,NNW,343,7.0,11.0,96,0.00,,---,0.19,VWS V14.01,2013-11-06 10:41:00,
2013-11-06 04:46:00,37.3,36.3,30.02,NW,314,3.0,13.0,96,0.00,,---,0.19,VWS V14.01,2013-11-06 10:46:00,
2013-11-06 04:51:00,37.3,36.3,30.02,NW,320,3.0,13.0,96,0.00,,---,0.19,VWS V14.01,2013-11-06 10:51:00,
2013-11-06 04:56:00,37.3,36.3,30.02,NE,42,1.0,13.0,96,0.00,,---,0.19,VWS V14.01,2013-11-06 10:56:00,
2013-11-06 05:00:00,37.3,36.3,30.03,NNW,332,5.0,13.0,96,0.00,,---,0.19,VWS V14.01,2013-11-06 11:00:00,
2013-11-06 05:01:00,37.3,36.3,30.03,North,360,5.0,9.0,96,0.00,,---,0.19,VWS V14.01,2013-11-06 11:01:00,
2013-11-06 05:06:00,37.3,36.3,30.03,NNW,338,0.0,9.0,96,0.00,,---,0.19,VWS V14.01,2013-11-06 11:06:00,
2013-11-06 05:11:00,37.3,36.3,30.03,NW,325,3.0,10.0,96,0.00,,---,0.19,VWS V14.01,2013-11-06 11:11:00,
2013-11-06 05:16:00,37.3,36.3,30.04,NNW,333,2.0,10.0,96,0.00,,---,0.19,VWS V14.01,2013-11-06 11:16:00,
2013-11-06 05:21:00,37.5,36.5,30.04,NW,311,1.0,10.0,96,0.00,,---,0.19,VWS V14.01,2013-11-06 11:21:00,
2013-11-06 05:26:00,37.5,36.5,30.04,NNW,344,1.0,10.0,96,0.00,,---,0.19,VWS V14.01,2013-11-06 11:26:00,
2013-11-06 05:30:00,37.5,36.5,30.04,North,360,4.0,10.0,96,0.00,,---,0.19,VWS V14.01,2013-11-06 11:30:00,
2013-11-06 05:31:00,37.5,36.5,30.04,North,360,4.0,10.0,96,0.00,,---,0.19,VWS V14.01,2013-11-06 11:31:00,
2013-11-06 05:36:00,37.5,36.5,30.04,NNW,330,4.0,11.0,96,0.00,,---,0.19,VWS V14.01,2013-11-06 11:36:00,
2013-11-06 05:41:00,37.5,36.5,30.04,NNW,338,4.0,11.0,96,0.00,,---,0.19,VWS V14.01,2013-11-06 11:41:00,
2013-11-06 05:46:00,37.5,36.5,30.06,North,9,3.0,11.0,96,0.00,,---,0.19,VWS V14.01,2013-11-06 11:46:00,
2013-11-06 05:51:00,37.5,36.5,30.06,NW,304,3.0,11.0,96,0.00,,---,0.19,VWS V14.01,2013-11-06 11:51:00,
2013-11-06 05:56:00,37.5,36.5,30.06,NNW,345,5.0,11.0,96,0.00,,---,0.19,VWS V14.01,2013-11-06 11:56:00,
2013-11-06 06:00:00,37.5,36.5,30.08,NNW,332,7.0,11.0,96,0.00,,---,0.19,VWS V14.01,2013-11-06 12:00:00,
2013-11-06 06:01:00,37.5,36.5,30.08,NNW,332,7.0,11.0,96,0.00,,---,0.19,VWS V14.01,2013-11-06 12:01:00,
2013-11-06 06:06:00,37.5,36.5,30.08,NW,321,2.0,8.0,96,0.00,,---,0.19,VWS V14.01,2013-11-06 12:06:00,
2013-11-06 06:11:00,37.5,36.5,30.08,NNW,346,2.0,8.0,96,0.00,,---,0.19,VWS V14.01,2013-11-06 12:11:00,
2013-11-06 06:16:00,37.3,36.3,30.08,NNW,333,4.0,8.0,96,0.00,,---,0.19,VWS V14.01,2013-11-06 12:16:00,
2013-11-06 06:21:00,37.3,36.3,30.08,NW,321,2.0,8.0,96,0.00,,---,0.19,VWS V14.01,2013-11-06 12:21:00,
2013-11-06 06:26:00,37.3,36.3,30.08,NNW,330,2.0,8.0,96,0.00,,---,0.19,VWS V14.01,2013-11-06 12:26:00,
2013-11-06 06:30:00,37.2,36.2,30.08,NW,323,7.0,8.0,96,0.00,,---,0.19,VWS V14.01,2013-11-06 12:30:00,
2013-11-06 06:31:00,37.2,36.2,30.08,NW,323,7.0,8.0,96,0.00,,---,0.19,VWS V14.01,2013-11-06 12:31:00,
2013-11-06 06:36:00,37.2,35.9,30.08,NNW,331,2.0,11.0,95,0.00,,---,0.19,VWS V14.01,2013-11-06 12:36:00,
2013-11-06 06:41:00,37.2,35.9,30.08,North,5,1.0,11.0,95,0.00,,---,0.19,VWS V14.01,2013-11-06 12:41:00,
2013-11-06 06:46:00,37.2,35.9,30.08,NNE,19,2.0,11.0,95,0.00,,---,0.19,VWS V14.01,2013-11-06 12:46:00,
2013-11-06 06:51:00,37.2,35.9,30.08,NNW,329,0.0,11.0,95,0.00,,---,0.19,VWS V14.01,2013-11-06 12:51:00,
2013-11-06 06:56:00,37.0,35.7,30.08,North,350,2.0,11.0,95,0.00,,---,0.19,VWS V14.01,2013-11-06 12:56:00,
2013-11-06 07:00:00,37.0,35.7,30.09,NW,305,6.0,11.0,95,0.00,,---,0.19,VWS V14.01,2013-11-06 13:00:00,
2013-11-06 07:01:00,37.0,35.7,30.09,NNW,332,5.0,11.0,95,0.00,,---,0.19,VWS V14.01,2013-11-06 13:01:00,
2013-11-06 07:06:00,37.0,35.7,30.09,North,5,4.0,8.0,95,0.00,,---,0.19,VWS V14.01,2013-11-06 13:06:00,
2013-11-06 07:11:00,37.0,35.7,30.09,WNW,295,4.0,9.0,95,0.00,,---,0.19,VWS V14.01,2013-11-06 13:11:00,
2013-11-06 07:16:00,37.0,35.7,30.10,NNE,18,1.0,9.0,95,0.00,,---,0.19,VWS V14.01,2013-11-06 13:16:00,
2013-11-06 07:21:00,37.2,35.9,30.10,NW,321,2.0,10.0,95,0.00,,---,0.19,VWS V14.01,2013-11-06 13:21:00,
2013-11-06 07:26:00,37.2,35.9,30.10,NNW,340,4.0,10.0,95,0.00,,---,0.19,VWS V14.01,2013-11-06 13:26:00,
2013-11-06 07:30:00,37.3,36.0,30.11,NNW,336,2.0,10.0,95,0.00,,---,0.19,VWS V14.01,2013-11-06 13:30:00,
2013-11-06 07:31:00,37.3,36.0,30.11,NW,321,3.0,10.0,95,0.00,,---,0.19,VWS V14.01,2013-11-06 13:31:00,
2013-11-06 07:36:00,37.3,36.0,30.11,NW,318,3.0,7.0,95,0.00,,---,0.19,VWS V14.01,2013-11-06 13:36:00,
2013-11-06 07:41:00,37.3,36.0,30.11,NW,313,2.0,7.0,95,0.00,,---,0.19,VWS V14.01,2013-11-06 13:41:00,
2013-11-06 07:46:00,37.3,36.0,30.12,NNW,338,5.0,8.0,95,0.00,,---,0.19,VWS V14.01,2013-11-06 13:46:00,
2013-11-06 07:51:00,37.2,35.9,30.12,NNW,334,3.0,8.0,95,0.00,,---,0.19,VWS V14.01,2013-11-06 13:51:00,
2013-11-06 07:56:00,37.2,35.9,30.12,NNW,336,3.0,8.0,95,0.00,,---,0.19,VWS V14.01,2013-11-06 13:56:00,
2013-11-06 08:00:00,37.2,35.9,30.13,North,5,3.0,8.0,95,0.00,,---,0.19,VWS V14.01,2013-11-06 14:00:00,
2013-11-06 08:01:00,37.2,35.9,30.13,North,5,3.0,8.0,95,0.00,,---,0.19,VWS V14.01,2013-11-06 14:01:00,
2013-11-06 08:06:00,37.2,35.9,30.13,NNW,346,1.0,4.0,95,0.00,,---,0.19,VWS V14.01,2013-11-06 14:06:00,
2013-11-06 08:11:00,37.2,35.9,30.13,NNE,18,3.0,11.0,95,0.00,,---,0.19,VWS V14.01,2013-11-06 14:11:00,
2013-11-06 08:16:00,37.0,35.7,30.15,NNE,27,1.0,11.0,95,0.00,,---,0.19,VWS V14.01,2013-11-06 14:16:00,
2013-11-06 08:21:00,37.0,35.7,30.15,NW,313,3.0,11.0,95,0.00,,---,0.19,VWS V14.01,2013-11-06 14:21:00,
2013-11-06 08:26:00,37.0,35.7,30.15,NW,319,3.0,11.0,95,0.00,,---,0.19,VWS V14.01,2013-11-06 14:26:00,
2013-11-06 08:30:00,37.0,35.7,30.14,North,350,1.0,12.0,95,0.00,,---,0.19,VWS V14.01,2013-11-06 14:30:00,
2013-11-06 08:31:00,37.0,35.7,30.14,North,355,1.0,12.0,95,0.00,,---,0.19,VWS V14.01,2013-11-06 14:31:00,
2013-11-06 08:36:00,37.2,35.9,30.14,North,360,4.0,11.0,95,0.00,,---,0.19,VWS V14.01,2013-11-06 14:36:00,
2013-11-06 08:41:00,37.0,35.4,30.14,North,11,4.0,13.0,94,0.00,,---,0.19,VWS V14.01,2013-11-06 14:41:00,
2013-11-06 08:46:00,37.0,35.4,30.15,WNW,298,1.0,13.0,94,0.00,,---,0.19,VWS V14.01,2013-11-06 14:46:00,
2013-11-06 08:51:00,37.2,35.6,30.15,NNE,14,3.0,13.0,94,0.00,,---,0.19,VWS V14.01,2013-11-06 14:51:00,
2013-11-06 08:56:00,37.3,35.7,30.15,NNW,335,4.0,13.0,94,0.00,,---,0.19,VWS V14.01,2013-11-06 14:56:00,
2013-11-06 09:00:00,37.3,35.7,30.16,North,5,4.0,13.0,94,0.00,,---,0.19,VWS V14.01,2013-11-06 15:00:00,
2013-11-06 09:01:00,37.3,35.7,30.16,North,355,3.0,13.0,94,0.00,,---,0.19,VWS V14.01,2013-11-06 15:01:00,
2013-11-06 09:06:00,37.5,35.9,30.16,NNE,17,6.0,9.0,94,0.00,,---,0.19,VWS V14.01,2013-11-06 15:06:00,
2013-11-06 09:11:00,37.5,35.9,30.16,West,261,2.0,9.0,94,0.00,,---,0.19,VWS V14.01,2013-11-06 15:11:00,
2013-11-06 09:16:00,37.5,35.9,30.17,North,355,5.0,9.0,94,0.00,,---,0.19,VWS V14.01,2013-11-06 15:16:00,
2013-11-06 09:21:00,37.6,36.0,30.17,NW,323,6.0,9.0,94,0.00,,---,0.19,VWS V14.01,2013-11-06 15:21:00,
2013-11-06 09:26:00,37.6,36.0,30.17,NNW,345,5.0,9.0,94,0.00,,---,0.19,VWS V14.01,2013-11-06 15:26:00,
2013-11-06 09:30:00,37.9,36.3,30.18,NW,305,6.0,10.0,94,0.00,,---,0.19,VWS V14.01,2013-11-06 15:30:00,
2013-11-06 09:31:00,37.9,36.3,30.18,North,360,3.0,10.0,94,0.00,,---,0.19,VWS V14.01,2013-11-06 15:31:00,
2013-11-06 09:35:00,37.9,36.3,30.18,NNW,327,3.0,10.0,94,0.00,,---,0.19,VWS V14.01,2013-11-06 15:35:00,
2013-11-06 09:40:00,38.0,36.4,30.18,NNW,340,2.0,10.0,94,0.00,,---,0.19,VWS V14.01,2013-11-06 15:40:00,
2013-11-06 09:45:00,38.3,36.7,30.19,NNW,342,2.0,10.0,94,0.00,,---,0.19,VWS V14.01,2013-11-06 15:45:00,
2013-11-06 09:50:00,38.3,36.5,30.19,NNW,339,6.0,10.0,93,0.00,,---,0.19,VWS V14.01,2013-11-06 15:50:00,
2013-11-06 09:55:00,38.5,36.7,30.19,NW,320,3.0,11.0,93,0.00,,---,0.19,VWS V14.01,2013-11-06 15:55:00,
2013-11-06 10:00:00,38.5,36.7,30.19,North,360,6.0,11.0,93,0.00,,---,0.19,VWS V14.01,2013-11-06 16:00:00,
2013-11-06 10:05:00,38.6,36.8,30.19,NNW,331,5.0,13.0,93,0.00,,---,0.19,VWS V14.01,2013-11-06 16:05:00,
2013-11-06 10:10:00,38.6,36.8,30.19,NW,325,1.0,13.0,93,0.00,,---,0.19,VWS V14.01,2013-11-06 16:10:00,
2013-11-06 10:15:00,38.8,37.0,30.20,NW,314,4.0,13.0,93,0.00,,---,0.19,VWS V14.01,2013-11-06 16:15:00,
2013-11-06 10:20:00,38.8,37.0,30.20,NNW,333,2.0,13.0,93,0.00,,---,0.19,VWS V14.01,2013-11-06 16:20:00,
2013-11-06 10:25:00,38.8,36.7,30.20,NNW,342,0.0,13.0,92,0.00,,---,0.19,VWS V14.01,2013-11-06 16:25:00,
2013-11-06 10:30:00,38.8,36.7,30.21,NNW,330,1.0,13.0,92,0.00,,---,0.19,VWS V14.01,2013-11-06 16:30:00,
2013-11-06 10:35:00,38.8,36.7,30.21,NNW,346,2.0,8.0,92,0.00,,---,0.19,VWS V14.01,2013-11-06 16:35:00,
2013-11-06 10:40:00,38.8,36.7,30.21,NNW,342,8.0,10.0,92,0.00,,---,0.19,VWS V14.01,2013-11-06 16:40:00,
2013-11-06 10:45:00,38.9,36.8,30.21,NE,41,4.0,12.0,92,0.00,,---,0.19,VWS V14.01,2013-11-06 16:45:00,
2013-11-06 10:50:00,38.9,36.8,30.21,WNW,302,0.0,12.0,92,0.00,,---,0.19,VWS V14.01,2013-11-06 16:50:00,
2013-11-06 10:55:00,39.1,37.0,30.21,NNW,345,3.0,12.0,92,0.00,,---,0.19,VWS V14.01,2013-11-06 16:55:00,
2013-11-06 11:00:00,38.9,36.8,30.21,NW,317,4.0,12.0,92,0.00,,---,0.19,VWS V14.01,2013-11-06 17:00:00,
2013-11-06 11:05:00,38.9,36.8,30.21,NW,311,4.0,9.0,92,0.00,,---,0.19,VWS V14.01,2013-11-06 17:05:00,
2013-11-06 11:10:00,38.9,36.8,30.21,NNW,338,1.0,11.0,92,0.00,,---,0.19,VWS V14.01,2013-11-06 17:10:00,
2013-11-06 11:15:00,38.9,36.8,30.23,NW,319,5.0,11.0,92,0.00,,---,0.19,VWS V14.01,2013-11-06 17:15:00,
2013-11-06 11:20:00,38.9,36.5,30.23,NNW,330,4.0,11.0,91,0.00,,---,0.19,VWS V14.01,2013-11-06 17:20:00,
2013-11-06 11:25:00,38.9,36.5,30.23,NNW,329,4.0,11.0,91,0.00,,---,0.19,VWS V14.01,2013-11-06 17:25:00,
2013-11-06 11:30:00,39.1,36.7,30.22,NW,324,1.0,11.0,91,0.00,,---,0.19,VWS V14.01,2013-11-06 17:30:00,
2013-11-06 11:35:00,39.2,36.8,30.22,NNW,344,4.0,10.0,91,0.00,,---,0.19,VWS V14.01,2013-11-06 17:35:00,
2013-11-06 11:40:00,39.3,36.9,30.22,NNW,337,3.0,10.0,91,0.00,,---,0.19,VWS V14.01,2013-11-06 17:40:00,
2013-11-06 11:45:00,39.5,37.1,30.22,WSW,252,1.0,10.0,91,0.00,,---,0.19,VWS V14.01,2013-11-06 17:45:00,
2013-11-06 11:50:00,39.3,36.6,30.22,NW,318,3.0,10.0,90,0.00,,---,0.19,VWS V14.01,2013-11-06 17:50:00,
2013-11-06 11:55:00,39.2,36.5,30.22,North,5,6.0,10.0,90,0.00,,---,0.19,VWS V14.01,2013-11-06 17:55:00,
2013-11-06 12:00:00,39.2,36.5,30.22,NNW,342,4.0,10.0,90,0.00,,---,0.19,VWS V14.01,2013-11-06 18:00:00,
2013-11-06 12:05:00,39.2,36.5,30.22,WNW,294,2.0,9.0,90,0.00,,---,0.19,VWS V14.01,2013-11-06 18:05:00,
2013-11-06 12:10:00,39.2,36.5,30.22,NNE,27,5.0,9.0,90,0.00,,---,0.19,VWS V14.01,2013-11-06 18:10:00,
2013-11-06 12:15:00,39.3,36.6,30.22,NNW,346,1.0,9.0,90,0.00,,---,0.19,VWS V14.01,2013-11-06 18:15:00,
2013-11-06 12:20:00,39.5,36.8,30.22,NNW,342,7.0,9.0,90,0.00,,---,0.19,VWS V14.01,2013-11-06 18:20:00,
2013-11-06 12:25:00,39.5,36.8,30.22,NW,315,2.0,9.0,90,0.00,,---,0.19,VWS V14.01,2013-11-06 18:25:00,
2013-11-06 12:30:00,39.6,36.9,30.22,NW,321,5.0,10.0,90,0.00,,---,0.19,VWS V14.01,2013-11-06 18:30:00,
2013-11-06 12:35:00,39.6,36.6,30.22,NNW,338,4.0,9.0,89,0.00,,---,0.19,VWS V14.01,2013-11-06 18:35:00,
2013-11-06 12:40:00,39.8,36.8,30.22,NNW,346,2.0,9.0,89,0.00,,---,0.19,VWS V14.01,2013-11-06 18:40:00,
2013-11-06 12:45:00,39.9,36.9,30.22,NNW,348,2.0,9.0,89,0.00,,---,0.19,VWS V14.01,2013-11-06 18:45:00,
2013-11-06 12:50:00,39.9,36.9,30.22,NNW,327,3.0,9.0,89,0.00,,---,0.19,VWS V14.01,2013-11-06 18:50:00,
2013-11-06 12:55:00,40.1,37.1,30.22,NNW,331,3.0,9.0,89,0.00,,---,0.19,VWS V14.01,2013-11-06 18:55:00,
2013-11-06 13:00:00,40.2,37.2,30.23,WNW,302,1.0,9.0,89,0.00,,---,0.19,VWS V14.01,2013-11-06 19:00:00,
2013-11-06 13:05:00,40.3,37.0,30.23,NW,323,4.0,11.0,88,0.00,,---,0.19,VWS V14.01,2013-11-06 19:05:00,
2013-11-06 13:10:00,40.3,37.0,30.23,NW,317,3.0,11.0,88,0.00,,---,0.19,VWS V14.01,2013-11-06 19:10:00,
2013-11-06 13:15:00,40.6,37.3,30.23,WNW,284,2.0,11.0,88,0.00,,---,0.19,VWS V14.01,2013-11-06 19:15:00,
2013-11-06 13:20:00,40.8,37.5,30.23,North,350,2.0,11.0,88,0.00,,---,0.19,VWS V14.01,2013-11-06 19:20:00,
2013-11-06 13:25:00,40.9,37.3,30.23,NNW,335,4.0,11.0,87,0.00,,---,0.19,VWS V14.01,2013-11-06 19:25:00,
2013-11-06 13:30:00,41.2,37.6,30.23,WNW,301,1.0,11.0,87,0.00,,---,0.19,VWS V14.01,2013-11-06 19:30:00,
2013-11-06 13:35:00,41.5,37.9,30.23,NNW,340,1.0,5.0,87,0.00,,---,0.19,VWS V14.01,2013-11-06 19:35:00,
2013-11-06 13:40:00,41.6,38.0,30.23,NW,318,4.0,8.0,87,0.00,,---,0.19,VWS V14.01,2013-11-06 19:40:00,
2013-11-06 13:45:00,41.9,38.3,30.23,SW,227,2.0,8.0,87,0.00,,---,0.19,VWS V14.01,2013-11-06 19:45:00,
2013-11-06 13:50:00,42.1,38.2,30.23,NNW,340,2.0,8.0,86,0.00,,---,0.19,VWS V14.01,2013-11-06 19:50:00,
2013-11-06 13:55:00,41.9,38.0,30.23,NNW,329,2.0,9.0,86,0.00,,---,0.19,VWS V14.01,2013-11-06 19:55:00,
2013-11-06 14:00:00,41.9,38.0,30.24,North,5,0.0,9.0,86,0.00,,---,0.19,VWS V14.01,2013-11-06 20:00:00,
2013-11-06 14:05:00,42.1,38.2,30.24,NW,310,4.0,9.0,86,0.00,,---,0.19,VWS V14.01,2013-11-06 20:05:00,
2013-11-06 14:10:00,42.1,37.9,30.24,NNW,338,7.0,13.0,85,0.00,,---,0.19,VWS V14.01,2013-11-06 20:10:00,
2013-11-06 14:15:00,42.1,37.9,30.25,WNW,296,0.0,13.0,85,0.00,,---,0.19,VWS V14.01,2013-11-06 20:15:00,
2013-11-06 14:20:00,42.1,37.9,30.25,West,261,0.0,13.0,85,0.00,,---,0.19,VWS V14.01,2013-11-06 20:20:00,
2013-11-06 14:25:00,42.1,37.6,30.25,WSW,237,0.0,13.0,84,0.00,,---,0.19,VWS V14.01,2013-11-06 20:25:00,
2013-11-06 14:30:00,42.1,37.6,30.25,NNW,329,0.0,13.0,84,0.00,,---,0.19,VWS V14.01,2013-11-06 20:30:00,
2013-11-06 14:35:00,42.2,37.7,30.25,NNW,333,3.0,5.0,84,0.00,,---,0.19,VWS V14.01,2013-11-06 20:35:00,
2013-11-06 14:40:00,42.2,37.7,30.25,NNW,331,1.0,6.0,84,0.00,,---,0.19,VWS V14.01,2013-11-06 20:40:00,
2013-11-06 14:45:00,42.2,37.7,30.25,NNE,19,1.0,7.0,84,0.00,,---,0.19,VWS V14.01,2013-11-06 20:45:00,
2013-11-06 14:50:00,42.2,37.7,30.25,NNW,331,2.0,7.0,84,0.00,,---,0.19,VWS V14.01,2013-11-06 20:50:00,
2013-11-06 14:55:00,42.3,37.8,30.25,NW,319,1.0,7.0,84,0.00,,---,0.19,VWS V14.01,2013-11-06 20:55:00,
2013-11-06 15:00:00,42.3,37.5,30.25,NW,325,1.0,7.0,83,0.00,,---,0.19,VWS V14.01,2013-11-06 21:00:00,
2013-11-06 15:05:00,42.5,37.7,30.25,NW,306,1.0,3.0,83,0.00,,---,0.19,VWS V14.01,2013-11-06 21:05:00,
2013-11-06 15:10:00,42.5,37.7,30.25,North,355,0.0,4.0,83,0.00,,---,0.19,VWS V14.01,2013-11-06 21:10:00,
2013-11-06 15:15:00,42.6,37.8,30.25,NNW,347,1.0,5.0,83,0.00,,---,0.19,VWS V14.01,2013-11-06 21:15:00,
2013-11-06 15:20:00,42.6,37.8,30.25,NNW,346,1.0,5.0,83,0.00,,---,0.19,VWS V14.01,2013-11-06 21:20:00,
2013-11-06 15:25:00,42.6,37.8,30.25,West,274,2.0,5.0,83,0.00,,---,0.19,VWS V14.01,2013-11-06 21:25:00,
2013-11-06 15:30:00,42.6,37.5,30.25,West,272,0.0,5.0,82,0.00,,---,0.19,VWS V14.01,2013-11-06 21:30:00,
2013-11-06 15:35:00,42.5,37.4,30.25,NNW,346,0.0,4.0,82,0.00,,---,0.19,VWS V14.01,2013-11-06 21:35:00,
2013-11-06 15:40:00,42.5,37.4,30.25,NNW,346,1.0,4.0,82,0.00,,---,0.19,VWS V14.01,2013-11-06 21:40:00,
2013-11-06 15:45:00,42.6,37.5,30.25,NNW,332,2.0,7.0,82,0.00,,---,0.19,VWS V14.01,2013-11-06 21:45:00,
2013-11-06 15:50:00,42.8,37.7,30.25,WNW,283,0.0,7.0,82,0.00,,---,0.19,VWS V14.01,2013-11-06 21:50:00,
2013-11-06 15:55:00,42.9,37.8,30.25,WNW,298,1.0,7.0,82,0.00,,---,0.19,VWS V14.01,2013-11-06 21:55:00,
2013-11-06 16:00:00,43.2,38.1,30.26,WNW,288,0.0,7.0,82,0.00,,---,0.19,VWS V14.01,2013-11-06 22:00:00,
2013-11-06 16:05:00,43.2,38.1,30.26,WNW,302,2.0,3.0,82,0.00,,---,0.19,VWS V14.01,2013-11-06 22:05:00,
2013-11-06 16:10:00,43.1,37.7,30.26,WNW,302,0.0,3.0,81,0.00,,---,0.19,VWS V14.01,2013-11-06 22:10:00,
2013-11-06 16:15:00,42.9,37.5,30.27,North,355,1.0,3.0,81,0.00,,---,0.19,VWS V14.01,2013-11-06 22:15:00,
2013-11-06 16:20:00,42.6,37.2,30.27,NW,314,0.0,3.0,81,0.00,,---,0.19,VWS V14.01,2013-11-06 22:20:00,
2013-11-06 16:25:00,42.5,37.1,30.27,NW,312,2.0,3.0,81,0.00,,---,0.19,VWS V14.01,2013-11-06 22:25:00,
2013-11-06 16:30:00,42.3,36.9,30.27,NW,314,0.0,3.0,81,0.00,,---,0.19,VWS V14.01,2013-11-06 22:30:00,
2013-11-06 16:35:00,42.2,36.8,30.27,NW,314,0.0,0.0,81,0.00,,---,0.19,VWS V14.01,2013-11-06 22:35:00,
2013-11-06 16:40:00,42.1,36.7,30.27,NW,314,0.0,0.0,81,0.00,,---,0.19,VWS V14.01,2013-11-06 22:40:00,
2013-11-06 16:45:00,41.9,36.5,30.27,NW,314,0.0,1.0,81,0.00,,---,0.19,VWS V14.01,2013-11-06 22:45:00,
2013-11-06 16:50:00,41.8,36.4,30.27,NW,314,0.0,1.0,81,0.00,,---,0.19,VWS V14.01,2013-11-06 22:50:00,
2013-11-06 16:55:00,41.6,36.2,30.27,NW,315,0.0,2.0,81,0.00,,---,0.19,VWS V14.01,2013-11-06 22:55:00,
2013-11-06 17:00:00,41.3,35.9,30.26,NW,314,0.0,2.0,81,0.00,,---,0.19,VWS V14.01,2013-11-06 23:00:00,
2013-11-06 17:05:00,41.3,35.6,30.26,NW,314,0.0,1.0,80,0.00,,---,0.19,VWS V14.01,2013-11-06 23:05:00,
2013-11-06 17:10:00,41.2,35.5,30.26,NW,314,0.0,1.0,80,0.00,,---,0.19,VWS V14.01,2013-11-06 23:10:00,
2013-11-06 17:15:00,41.1,35.7,30.26,NW,314,0.0,1.0,81,0.00,,---,0.19,VWS V14.01,2013-11-06 23:15:00,
2013-11-06 17:20:00,41.1,35.7,30.26,NW,314,0.0,1.0,81,0.00,,---,0.19,VWS V14.01,2013-11-06 23:20:00,
2013-11-06 17:25:00,41.1,35.7,30.26,NW,314,0.0,1.0,81,0.00,,---,0.19,VWS V14.01,2013-11-06 23:25:00,
2013-11-06 17:30:00,41.1,35.7,30.26,NW,314,0.0,1.0,81,0.00,,---,0.19,VWS V14.01,2013-11-06 23:30:00,
2013-11-06 17:35:00,41.1,35.7,30.26,NW,314,0.0,0.0,81,0.00,,---,0.19,VWS V14.01,2013-11-06 23:35:00,
2013-11-06 17:40:00,40.9,35.5,30.26,NW,314,0.0,0.0,81,0.00,,---,0.19,VWS V14.01,2013-11-06 23:40:00,
2013-11-06 17:45:00,40.6,35.2,30.27,NW,314,0.0,0.0,81,0.00,,---,0.19,VWS V14.01,2013-11-06 23:45:00,
2013-11-06 17:50:00,40.6,35.2,30.27,NW,314,0.0,0.0,81,0.00,,---,0.19,VWS V14.01,2013-11-06 23:50:00,
2013-11-06 17:55:00,40.3,34.9,30.27,NW,314,0.0,0.0,81,0.00,,---,0.19,VWS V14.01,2013-11-06 23:55:00,
2013-11-06 18:00:00,40.1,34.8,30.27,NW,314,0.0,0.0,81,0.00,,---,0.19,VWS V14.01,2013-11-07 00:00:00,
2013-11-06 18:05:00,39.8,34.5,30.27,NW,314,0.0,0.0,81,0.00,,---,0.19,VWS V14.01,2013-11-07 00:05:00,
2013-11-06 18:10:00,39.5,34.2,30.27,NW,314,0.0,0.0,81,0.00,,---,0.19,VWS V14.01,2013-11-07 00:10:00,
2013-11-06 18:15:00,39.1,34.1,30.27,NW,314,0.0,0.0,82,0.00,,---,0.19,VWS V14.01,2013-11-07 00:15:00,
2013-11-06 18:20:00,38.8,33.8,30.27,NW,314,0.0,0.0,82,0.00,,---,0.19,VWS V14.01,2013-11-07 00:20:00,
2013-11-06 18:25:00,38.6,33.6,30.27,NW,314,0.0,0.0,82,0.00,,---,0.19,VWS V14.01,2013-11-07 00:25:00,
2013-11-06 18:30:00,38.3,33.3,30.28,NW,314,0.0,0.0,82,0.00,,---,0.19,VWS V14.01,2013-11-07 00:30:00,
2013-11-06 18:35:00,38.0,33.0,30.28,NW,314,0.0,0.0,82,0.00,,---,0.19,VWS V14.01,2013-11-07 00:35:00,
2013-11-06 18:40:00,37.8,32.8,30.28,NW,314,0.0,0.0,82,0.00,,---,0.19,VWS V14.01,2013-11-07 00:40:00,
2013-11-06 18:45:00,37.5,32.5,30.28,NW,314,0.0,0.0,82,0.00,,---,0.19,VWS V14.01,2013-11-07 00:45:00,
2013-11-06 18:50:00,37.2,32.2,30.29,NW,314,0.0,0.0,82,0.00,,---,0.19,VWS V14.01,2013-11-07 00:50:00,
2013-11-06 18:55:00,36.9,31.9,30.29,NW,314,0.0,0.0,82,0.00,,---,0.19,VWS V14.01,2013-11-07 00:55:00,
2013-11-06 19:00:00,36.6,31.9,30.29,NW,314,0.0,0.0,83,0.00,,---,0.19,VWS V14.01,2013-11-07 01:00:00,
2013-11-06 19:05:00,36.5,31.8,30.29,NW,314,0.0,0.0,83,0.00,,---,0.19,VWS V14.01,2013-11-07 01:05:00,
2013-11-06 19:10:00,36.3,31.6,30.29,NW,314,0.0,0.0,83,0.00,,---,0.19,VWS V14.01,2013-11-07 01:10:00,
2013-11-06 19:15:00,36.2,31.5,30.29,NW,314,0.0,0.0,83,0.00,,---,0.19,VWS V14.01,2013-11-07 01:15:00,
2013-11-06 19:20:00,36.0,31.6,30.29,NW,314,0.0,0.0,84,0.00,,---,0.19,VWS V14.01,2013-11-07 01:20:00,
2013-11-06 19:25:00,36.2,31.8,30.29,NW,314,0.0,0.0,84,0.00,,---,0.19,VWS V14.01,2013-11-07 01:25:00,
2013-11-06 19:30:00,36.6,32.5,30.29,NW,314,0.0,0.0,85,0.00,,---,0.19,VWS V14.01,2013-11-07 01:30:00,
2013-11-06 19:35:00,36.8,32.4,30.30,NW,314,0.0,0.0,84,0.00,,---,0.19,VWS V14.01,2013-11-07 01:35:00,
2013-11-06 19:40:00,36.9,32.5,30.30,NW,314,0.0,0.0,84,0.00,,---,0.19,VWS V14.01,2013-11-07 01:40:00,
2013-11-06 19:45:00,36.9,32.8,30.30,NW,314,0.0,0.0,85,0.00,,---,0.19,VWS V14.01,2013-11-07 01:45:00,
2013-11-06 19:50:00,37.0,32.9,30.29,NW,314,0.0,0.0,85,0.00,,---,0.19,VWS V14.01,2013-11-07 01:50:00,
2013-11-06 19:55:00,36.9,32.8,30.29,NW,314,0.0,0.0,85,0.00,,---,0.19,VWS V14.01,2013-11-07 01:55:00,
2013-11-06 20:00:00,36.9,32.8,30.29,NW,314,0.0,0.0,85,0.00,,---,0.19,VWS V14.01,2013-11-07 02:00:00,
2013-11-06 20:05:00,36.9,32.8,30.30,NW,314,0.0,0.0,85,0.00,,---,0.19,VWS V14.01,2013-11-07 02:05:00,
2013-11-06 20:10:00,36.9,32.8,30.30,NW,314,0.0,0.0,85,0.00,,---,0.19,VWS V14.01,2013-11-07 02:10:00,
2013-11-06 20:15:00,36.9,32.8,30.30,NW,314,0.0,0.0,85,0.00,,---,0.19,VWS V14.01,2013-11-07 02:15:00,
2013-11-06 20:20:00,36.9,32.8,30.31,NW,314,0.0,0.0,85,0.00,,---,0.19,VWS V14.01,2013-11-07 02:20:00,
2013-11-06 20:25:00,37.0,32.9,30.31,NW,314,0.0,0.0,85,0.00,,---,0.19,VWS V14.01,2013-11-07 02:25:00,
2013-11-06 20:30:00,36.9,32.8,30.31,NW,314,0.0,0.0,85,0.00,,---,0.19,VWS V14.01,2013-11-07 02:30:00,
2013-11-06 20:35:00,36.8,32.7,30.31,West,279,1.0,2.0,85,0.00,,---,0.19,VWS V14.01,2013-11-07 02:35:00,
2013-11-06 20:40:00,36.8,33.0,30.31,West,279,0.0,2.0,86,0.00,,---,0.19,VWS V14.01,2013-11-07 02:40:00,
2013-11-06 20:45:00,36.6,32.8,30.31,West,279,0.0,2.0,86,0.00,,---,0.19,VWS V14.01,2013-11-07 02:45:00,
2013-11-06 20:50:00,36.5,32.7,30.31,West,279,0.0,2.0,86,0.00,,---,0.19,VWS V14.01,2013-11-07 02:50:00,
2013-11-06 20:55:00,36.3,32.5,30.31,West,279,0.0,2.0,86,0.00,,---,0.19,VWS V14.01,2013-11-07 02:55:00,
2013-11-06 21:00:00,36.0,32.2,30.31,West,279,0.0,2.0,86,0.00,,---,0.19,VWS V14.01,2013-11-07 03:00:00,
2013-11-06 21:05:00,35.9,32.1,30.31,West,279,0.0,0.0,86,0.00,,---,0.19,VWS V14.01,2013-11-07 03:05:00,
2013-11-06 21:10:00,35.8,32.0,30.31,West,279,0.0,0.0,86,0.00,,---,0.19,VWS V14.01,2013-11-07 03:10:00,
2013-11-06 21:15:00,35.6,31.8,30.31,West,279,0.0,0.0,86,0.00,,---,0.19,VWS V14.01,2013-11-07 03:15:00,
2013-11-06 21:20:00,35.5,31.7,30.33,West,279,0.0,0.0,86,0.00,,---,0.19,VWS V14.01,2013-11-07 03:20:00,
2013-11-06 21:25:00,35.3,31.5,30.33,West,279,0.0,0.0,86,0.00,,---,0.19,VWS V14.01,2013-11-07 03:25:00,
2013-11-06 21:30:00,35.2,31.4,30.33,West,279,0.0,0.0,86,0.00,,---,0.19,VWS V14.01,2013-11-07 03:30:00,
2013-11-06 21:35:00,35.0,31.2,30.33,West,279,0.0,0.0,86,0.00,,---,0.19,VWS V14.01,2013-11-07 03:35:00,
2013-11-06 21:40:00,34.9,31.1,30.33,West,279,0.0,0.0,86,0.00,,---,0.19,VWS V14.01,2013-11-07 03:40:00,
2013-11-06 21:45:00,34.7,31.2,30.33,West,279,0.0,0.0,87,0.00,,---,0.19,VWS V14.01,2013-11-07 03:45:00,
2013-11-06 21:50:00,34.6,31.1,30.33,West,279,0.0,0.0,87,0.00,,---,0.19,VWS V14.01,2013-11-07 03:50:00,
2013-11-06 21:55:00,34.7,31.2,30.33,West,279,0.0,0.0,87,0.00,,---,0.19,VWS V14.01,2013-11-07 03:55:00,
2013-11-06 22:00:00,34.7,31.2,30.33,West,279,0.0,0.0,87,0.00,,---,0.19,VWS V14.01,2013-11-07 04:00:00,
2013-11-06 22:05:00,34.7,31.2,30.34,West,279,0.0,0.0,87,0.00,,---,0.19,VWS V14.01,2013-11-07 04:05:00,
2013-11-06 22:10:00,34.6,31.1,30.34,West,279,0.0,0.0,87,0.00,,---,0.19,VWS V14.01,2013-11-07 04:10:00,
2013-11-06 22:15:00,34.6,31.1,30.34,West,279,0.0,0.0,87,0.00,,---,0.19,VWS V14.01,2013-11-07 04:15:00,
2013-11-06 22:20:00,34.6,31.1,30.35,West,279,0.0,0.0,87,0.00,,---,0.19,VWS V14.01,2013-11-07 04:20:00,
2013-11-06 22:25:00,34.6,31.1,30.35,West,279,0.0,0.0,87,0.00,,---,0.19,VWS V14.01,2013-11-07 04:25:00,
2013-11-06 22:30:00,34.4,30.9,30.35,West,279,0.0,0.0,87,0.00,,---,0.19,VWS V14.01,2013-11-07 04:30:00,
2013-11-06 22:35:00,34.3,30.8,30.34,West,279,0.0,0.0,87,0.00,,---,0.19,VWS V14.01,2013-11-07 04:35:00,
2013-11-06 22:40:00,34.0,30.5,30.34,West,279,0.0,0.0,87,0.00,,---,0.19,VWS V14.01,2013-11-07 04:40:00,
2013-11-06 22:45:00,33.8,30.4,30.34,West,279,0.0,0.0,87,0.00,,---,0.19,VWS V14.01,2013-11-07 04:45:00,
2013-11-06 22:50:00,33.5,30.0,30.35,West,279,0.0,0.0,87,0.00,,---,0.19,VWS V14.01,2013-11-07 04:50:00,
2013-11-06 22:55:00,33.5,30.0,30.35,West,279,0.0,0.0,87,0.00,,---,0.19,VWS V14.01,2013-11-07 04:55:00,
2013-11-06 23:00:00,33.4,30.0,30.35,West,279,0.0,0.0,87,0.00,,---,0.19,VWS V14.01,2013-11-07 05:00:00,
2013-11-06 23:01:00,33.4,30.0,30.35,West,279,0.0,0.0,87,0.00,,---,0.19,VWS V14.01,2013-11-07 05:01:00,
2013-11-06 23:06:00,33.2,29.8,30.35,West,279,0.0,0.0,87,0.00,,---,0.19,VWS V14.01,2013-11-07 05:06:00,
2013-11-06 23:11:00,32.9,29.5,30.35,West,279,0.0,0.0,87,0.00,,---,0.19,VWS V14.01,2013-11-07 05:11:00,
2013-11-06 23:16:00,32.8,29.4,30.35,West,279,0.0,0.0,87,0.00,,---,0.19,VWS V14.01,2013-11-07 05:16:00,
2013-11-06 23:21:00,32.8,29.6,30.35,West,279,0.0,0.0,88,0.00,,---,0.19,VWS V14.01,2013-11-07 05:21:00,
2013-11-06 23:26:00,32.9,29.7,30.35,West,279,0.0,0.0,88,0.00,,---,0.19,VWS V14.01,2013-11-07 05:26:00,
2013-11-06 23:30:00,32.8,29.6,30.35,West,279,0.0,0.0,88,0.00,,---,0.19,VWS V14.01,2013-11-07 05:30:00,
2013-11-06 23:31:00,32.8,29.6,30.35,West,279,0.0,0.0,88,0.00,,---,0.19,VWS V14.01,2013-11-07 05:31:00,
2013-11-06 23:36:00,32.7,29.5,30.35,West,279,0.0,0.0,88,0.00,,---,0.19,VWS V14.01,2013-11-07 05:36:00,
2013-11-06 23:41:00,32.8,29.6,30.35,West,279,0.0,0.0,88,0.00,,---,0.19,VWS V14.01,2013-11-07 05:41:00,
2013-11-06 23:46:00,32.8,29.6,30.34,West,279,0.0,0.0,88,0.00,,---,0.19,VWS V14.01,2013-11-07 05:46:00,
2013-11-06 23:51:00,32.9,29.7,30.34,West,279,0.0,0.0,88,0.00,,---,0.19,VWS V14.01,2013-11-07 05:51:00,
2013-11-06 23:56:00,32.9,30.0,30.34,West,279,0.0,0.0,89,0.00,,---,0.19,VWS V14.01,2013-11-07 05:56:00,